Live-Position
3D-Globus wird geladen...
Über Starlink 33824
Group: 3 satellites
Beschreibung wird geladen...
Nächste Überflüge
Passes for default location (London). Set your location on the main map for personalized predictions.
Höhenverlauf
Loading altitude history...
No altitude history available
Zweizeiliger Elementsatz
1 63766U 25089R 26127.54027622 .00006232 00000-0 23576-3 0 9997
2 63766 42.9994 73.2548 0001125 268.2290 91.8433 15.27583189 57957
Epoch: 7. Mai 2026 •
Age: 9 hours
Aktueller Status
Höhe 483.2 km
Geschwindigkeit 7.63 km/s
Subsatellitenpunkt -2.94°S,
133.32°W
Startdatum 29. Apr. 2025
Alter 1 years
Typ internet
Startgruppe
Falcon 9 •
Group 12-10 •
23 satellites
Starlink 11677
63751
Starlink 11702 63752
Starlink 11706 63753
Starlink 11662 63754
Starlink 11681 63755
Starlink 11688 63756
Starlink 11676 63757
Starlink 11705 63758
Starlink 11703 63759
Starlink 11701 63760
Starlink 11660 63761
Starlink 11699 63762
Starlink 11693 63763
Starlink 33760 63764
Starlink 33941 63765
Starlink 33808 63767
Starlink 33844 63768
Starlink 33907 63769
Starlink 33884 63770
Starlink 33841 63771
...and 2 more
Technische Details
Klassifizierung Payload
Masse 575.00 kg
Trockenmasse 530.00 kg
Gesamtmasse 575.00 kg
Länge 0.30 m
Durchmesser 4.10 m
Spannweite 29.00 m
Form Box + pan
Hersteller SPXS
Bus-Typ Starlink V2MO
Phasenstatus In Orbit
Besitzer/Staat SPXS/US
Most Searched
Loading...